contact:dominique.lefevre@mio.osupytheas.fr, maurice.libes@osupytheas.fr, didier.mallarino@osupytheas.fr
Project:EMSO http://www.emso-fr.org/EMSO-France
Depth: 2436.0 m
Title:EMSO Ligure Ouest : Data MII capteur MICROCAT
DateTime_Computer,Latitude,Longitude,Temperature,Conductivity,Pressure,DateTime_Instrument
DateTime_Computer,Latitude,Longitude,degC,S m-1,dbar,DateTime_Instrument
2021-01-06T00:00:47Z,42.805,6.029,13.2986,4.59995,2470.156,2021-1-06T02:01:48Z
2021-01-06T00:03:51Z,42.805,6.029,13.2990,4.60009,2470.18,2021-1-06T02:04:51Z
2021-01-06T00:06:54Z,42.805,6.029,13.2991,4.60003,2470.203,2021-1-06T02:07:54Z
2021-01-06T00:09:57Z,42.805,6.029,13.2993,4.60004,2470.156,2021-1-06T02:10:58Z
2021-01-06T00:13:00Z,42.805,6.029,13.2993,4.59997,2470.194,2021-1-06T02:14:01Z
2021-01-06T00:16:03Z,42.805,6.029,13.2987,4.59996,2470.18,2021-1-06T02:17:04Z
2021-01-06T00:19:06Z,42.805,6.029,13.2988,4.59993,2470.18,2021-1-06T02:20:07Z
2021-01-06T00:22:09Z,42.805,6.029,13.2988,4.59997,2470.18,2021-1-06T02:23:10Z
2021-01-06T00:25:12Z,42.805,6.029,13.2991,4.59998,2470.194,2021-1-06T02:26:13Z
2021-01-06T00:28:16Z,42.805,6.029,13.2990,4.60009,2470.18,2021-1-06T02:29:16Z
2021-01-06T00:31:19Z,42.805,6.029,13.2986,4.60003,2470.156,2021-1-06T02:32:19Z
2021-01-06T00:34:22Z,42.805,6.029,13.2990,4.59996,2470.156,2021-1-06T02:35:22Z
2021-01-06T00:37:25Z,42.805,6.029,13.2981,4.59994,2470.156,2021-1-06T02:38:26Z
2021-01-06T00:40:28Z,42.805,6.029,13.2990,4.59996,2470.194,2021-1-06T02:41:29Z
2021-01-06T00:43:31Z,42.805,6.029,13.2986,4.59994,2470.147,2021-1-06T02:44:32Z
2021-01-06T00:46:34Z,42.805,6.029,13.2984,4.59996,2470.217,2021-1-06T02:47:35Z
2021-01-06T00:49:37Z,42.805,6.029,13.2987,4.59993,2470.156,2021-1-06T02:50:38Z
2021-01-06T00:52:41Z,42.805,6.029,13.2987,4.60002,2470.18,2021-1-06T02:53:41Z
2021-01-06T00:55:44Z,42.805,6.029,13.2990,4.59998,2470.171,2021-1-06T02:56:44Z
2021-01-06T00:58:47Z,42.805,6.029,13.2987,4.59996,2470.194,2021-1-06T02:59:47Z
2021-01-06T01:01:50Z,42.805,6.029,13.2986,4.59995,2470.156,2021-1-06T03:02:51Z
2021-01-06T01:04:53Z,42.805,6.029,13.2987,4.59993,2470.147,2021-1-06T03:05:54Z
2021-01-06T01:07:56Z,42.805,6.029,13.2994,4.60000,2470.156,2021-1-06T03:08:57Z
2021-01-06T01:10:59Z,42.805,6.029,13.2987,4.60003,2470.156,2021-1-06T03:12:00Z
2021-01-06T01:14:02Z,42.805,6.029,13.2983,4.60005,2470.133,2021-1-06T03:15:03Z
2021-01-06T01:17:05Z,42.805,6.029,13.2991,4.60012,2470.156,2021-1-06T03:18:06Z
2021-01-06T01:20:09Z,42.805,6.029,13.2990,4.59999,2470.171,2021-1-06T03:21:09Z
2021-01-06T01:23:12Z,42.805,6.029,13.2986,4.59993,2470.156,2021-1-06T03:24:12Z
2021-01-06T01:26:15Z,42.805,6.029,13.2989,4.59995,2470.194,2021-1-06T03:27:15Z
2021-01-06T01:29:18Z,42.805,6.029,13.2983,4.59990,2470.156,2021-1-06T03:30:19Z
2021-01-06T01:32:21Z,42.805,6.029,13.2988,4.59992,2470.171,2021-1-06T03:33:22Z
2021-01-06T01:35:24Z,42.805,6.029,13.2989,4.59992,2470.156,2021-1-06T03:36:25Z
2021-01-06T01:38:27Z,42.805,6.029,13.2989,4.60010,2470.171,2021-1-06T03:39:28Z
2021-01-06T01:41:30Z,42.805,6.029,13.2992,4.60011,2470.18,2021-1-06T03:42:31Z
2021-01-06T01:44:33Z,42.805,6.029,13.2991,4.60000,2470.18,2021-1-06T03:45:34Z
2021-01-06T01:47:37Z,42.805,6.029,13.2990,4.60007,2470.133,2021-1-06T03:48:37Z
2021-01-06T01:50:40Z,42.805,6.029,13.2990,4.59998,2470.18,2021-1-06T03:51:40Z
2021-01-06T01:53:43Z,42.805,6.029,13.2987,4.60004,2470.156,2021-1-06T03:54:44Z
2021-01-06T01:56:46Z,42.805,6.029,13.2993,4.60001,2470.171,2021-1-06T03:57:47Z
2021-01-06T01:59:49Z,42.805,6.029,13.2986,4.59996,2470.194,2021-1-06T04:00:50Z
2021-01-06T02:02:52Z,42.805,6.029,13.2985,4.59995,2470.156,2021-1-06T04:03:53Z
2021-01-06T02:05:55Z,42.805,6.029,13.2990,4.60001,2470.189,2021-1-06T04:06:56Z
2021-01-06T02:08:58Z,42.805,6.029,13.2987,4.59995,2470.156,2021-1-06T04:09:59Z
2021-01-06T02:12:02Z,42.805,6.029,13.2989,4.59998,2470.18,2021-1-06T04:13:02Z
2021-01-06T02:15:05Z,42.805,6.029,13.2991,4.60009,2470.18,2021-1-06T04:16:05Z
2021-01-06T02:18:08Z,42.805,6.029,13.2983,4.60000,2470.194,2021-1-06T04:19:08Z
2021-01-06T02:21:11Z,42.805,6.029,13.2986,4.59999,2470.156,2021-1-06T04:22:12Z
2021-01-06T02:24:14Z,42.805,6.029,13.2987,4.59992,2470.133,2021-1-06T04:25:15Z
2021-01-06T02:27:17Z,42.805,6.029,13.2992,4.60010,2470.156,2021-1-06T04:28:18Z
2021-01-06T02:30:20Z,42.805,6.029,13.2993,4.59996,2470.194,2021-1-06T04:31:21Z
2021-01-06T02:33:23Z,42.805,6.029,13.2996,4.60013,2470.18,2021-1-06T04:34:24Z
2021-01-06T02:36:27Z,42.805,6.029,13.2993,4.60011,2470.156,2021-1-06T04:37:27Z
2021-01-06T02:39:30Z,42.805,6.029,13.2995,4.60005,2470.171,2021-1-06T04:40:30Z
2021-01-06T02:42:33Z,42.805,6.029,13.2991,4.60001,2470.217,2021-1-06T04:43:33Z
2021-01-06T02:45:36Z,42.805,6.029,13.2989,4.60001,2470.156,2021-1-06T04:46:37Z
2021-01-06T02:48:39Z,42.805,6.029,13.2992,4.60009,2470.194,2021-1-06T04:49:40Z
2021-01-06T02:51:42Z,42.805,6.029,13.2986,4.59995,2470.147,2021-1-06T04:52:43Z
2021-01-06T02:54:45Z,42.805,6.029,13.2988,4.59998,2470.156,2021-1-06T04:55:46Z
2021-01-06T02:57:48Z,42.805,6.029,13.2990,4.60004,2470.156,2021-1-06T04:58:49Z
2021-01-06T03:00:51Z,42.805,6.029,13.2986,4.59996,2470.133,2021-1-06T05:01:52Z
2021-01-06T03:03:55Z,42.805,6.029,13.2985,4.59995,2470.171,2021-1-06T05:04:55Z
2021-01-06T03:06:58Z,42.805,6.029,13.2990,4.59995,2470.156,2021-1-06T05:07:58Z
2021-01-06T03:10:01Z,42.805,6.029,13.2991,4.60008,2470.133,2021-1-06T05:11:01Z
2021-01-06T03:13:04Z,42.805,6.029,13.2996,4.60009,2470.11,2021-1-06T05:14:05Z
2021-01-06T03:16:07Z,42.805,6.029,13.2993,4.59999,2470.194,2021-1-06T05:17:08Z
2021-01-06T03:19:10Z,42.805,6.029,13.2987,4.60006,2470.133,2021-1-06T05:20:11Z
2021-01-06T03:22:13Z,42.805,6.029,13.2993,4.60016,2470.194,2021-1-06T05:23:14Z
2021-01-06T03:25:16Z,42.805,6.029,13.2993,4.59996,2470.147,2021-1-06T05:26:17Z
2021-01-06T03:28:19Z,42.805,6.029,13.2991,4.60009,2470.133,2021-1-06T05:29:20Z
2021-01-06T03:31:23Z,42.805,6.029,13.2989,4.60006,2470.11,2021-1-06T05:32:23Z
2021-01-06T03:34:26Z,42.805,6.029,13.2995,4.60005,2470.171,2021-1-06T05:35:26Z
2021-01-06T03:37:29Z,42.805,6.029,13.2997,4.60010,2470.156,2021-1-06T05:38:30Z
2021-01-06T03:40:32Z,42.805,6.029,13.2991,4.59994,2470.156,2021-1-06T05:41:33Z
2021-01-06T03:43:35Z,42.805,6.029,13.2998,4.60014,2470.133,2021-1-06T05:44:36Z
2021-01-06T03:46:38Z,42.805,6.029,13.2987,4.59993,2470.194,2021-1-06T05:47:39Z
2021-01-06T03:49:41Z,42.805,6.029,13.2985,4.59995,2470.147,2021-1-06T05:50:42Z
2021-01-06T03:52:44Z,42.805,6.029,13.2991,4.60002,2470.11,2021-1-06T05:53:45Z
2021-01-06T03:55:48Z,42.805,6.029,13.2984,4.59998,2470.133,2021-1-06T05:56:48Z
2021-01-06T03:58:51Z,42.805,6.029,13.2990,4.59996,2470.133,2021-1-06T05:59:51Z
2021-01-06T04:01:54Z,42.805,6.029,13.2988,4.60011,2470.156,2021-1-06T06:02:54Z
2021-01-06T04:04:57Z,42.805,6.029,13.2987,4.60001,2470.11,2021-1-06T06:05:58Z
2021-01-06T04:08:00Z,42.805,6.029,13.2992,4.59997,2470.124,2021-1-06T06:09:01Z
2021-01-06T04:11:03Z,42.805,6.029,13.2982,4.59993,2470.147,2021-1-06T06:12:04Z
2021-01-06T04:14:06Z,42.805,6.029,13.2987,4.59994,2470.147,2021-1-06T06:15:07Z
2021-01-06T04:17:09Z,42.805,6.029,13.2991,4.59994,2470.11,2021-1-06T06:18:10Z
2021-01-06T04:20:12Z,42.805,6.029,13.2982,4.59997,2470.133,2021-1-06T06:21:13Z
2021-01-06T04:23:16Z,42.805,6.029,13.2987,4.59999,2470.147,2021-1-06T06:24:16Z
2021-01-06T04:26:19Z,42.805,6.029,13.2985,4.60009,2470.11,2021-1-06T06:27:19Z
2021-01-06T04:29:22Z,42.805,6.029,13.2992,4.60002,2470.11,2021-1-06T06:30:22Z
2021-01-06T04:32:25Z,42.805,6.029,13.2983,4.59995,2470.133,2021-1-06T06:33:26Z
2021-01-06T04:35:28Z,42.805,6.029,13.2984,4.59994,2470.133,2021-1-06T06:36:29Z
2021-01-06T04:38:31Z,42.805,6.029,13.2988,4.60008,2470.147,2021-1-06T06:39:32Z
2021-01-06T04:41:34Z,42.805,6.029,13.2985,4.60003,2470.11,2021-1-06T06:42:35Z
2021-01-06T04:44:37Z,42.805,6.029,13.2992,4.59996,2470.133,2021-1-06T06:45:38Z
2021-01-06T04:47:41Z,42.805,6.029,13.2990,4.60017,2470.1,2021-1-06T06:48:41Z
2021-01-06T04:50:44Z,42.805,6.029,13.2988,4.60003,2470.11,2021-1-06T06:51:44Z
2021-01-06T04:53:47Z,42.805,6.029,13.2988,4.60008,2470.147,2021-1-06T06:54:47Z
2021-01-06T04:56:50Z,42.805,6.029,13.2993,4.60010,2470.124,2021-1-06T06:57:51Z
2021-01-06T04:59:53Z,42.805,6.029,13.2990,4.59999,2470.147,2021-1-06T07:00:54Z
2021-01-06T05:02:56Z,42.805,6.029,13.2986,4.60001,2470.11,2021-1-06T07:03:57Z
2021-01-06T05:05:59Z,42.805,6.029,13.2991,4.59996,2470.133,2021-1-06T07:07:00Z
2021-01-06T05:09:02Z,42.805,6.029,13.2984,4.59994,2470.11,2021-1-06T07:10:03Z
2021-01-06T05:12:05Z,42.805,6.029,13.2993,4.60011,2470.133,2021-1-06T07:13:06Z
2021-01-06T05:15:09Z,42.805,6.029,13.2988,4.60007,2470.133,2021-1-06T07:16:09Z
2021-01-06T05:18:12Z,42.805,6.029,13.2989,4.59996,2470.133,2021-1-06T07:19:12Z
2021-01-06T05:21:15Z,42.805,6.029,13.2983,4.59996,2470.11,2021-1-06T07:22:15Z
2021-01-06T05:24:18Z,42.805,6.029,13.2986,4.60004,2470.124,2021-1-06T07:25:19Z
2021-01-06T05:27:21Z,42.805,6.029,13.2986,4.59997,2470.124,2021-1-06T07:28:22Z
2021-01-06T05:30:24Z,42.805,6.029,13.2986,4.59994,2470.087,2021-1-06T07:31:25Z
2021-01-06T05:33:27Z,42.805,6.029,13.2991,4.60001,2470.124,2021-1-06T07:34:28Z
2021-01-06T05:36:30Z,42.805,6.029,13.2993,4.60006,2470.133,2021-1-06T07:37:31Z
2021-01-06T05:39:34Z,42.805,6.029,13.2985,4.60003,2470.11,2021-1-06T07:40:34Z
2021-01-06T05:42:37Z,42.805,6.029,13.2990,4.60002,2470.133,2021-1-06T07:43:37Z
2021-01-06T05:45:40Z,42.805,6.029,13.2994,4.60001,2470.11,2021-1-06T07:46:40Z
2021-01-06T05:48:43Z,42.805,6.029,13.2984,4.59994,2470.11,2021-1-06T07:49:44Z
2021-01-06T05:51:46Z,42.805,6.029,13.2983,4.59996,2470.11,2021-1-06T07:52:47Z
2021-01-06T05:54:49Z,42.805,6.029,13.2987,4.59999,2470.1,2021-1-06T07:55:50Z
2021-01-06T05:57:52Z,42.805,6.029,13.2993,4.60002,2470.124,2021-1-06T07:58:53Z
2021-01-06T06:00:55Z,42.805,6.029,13.2992,4.59996,2470.11,2021-1-06T08:01:56Z
2021-01-06T06:03:58Z,42.805,6.029,13.2989,4.59993,2470.124,2021-1-06T08:04:59Z
2021-01-06T06:07:02Z,42.805,6.029,13.2982,4.59993,2470.087,2021-1-06T08:08:02Z
2021-01-06T06:10:05Z,42.805,6.029,13.2991,4.60000,2470.087,2021-1-06T08:11:05Z
2021-01-06T06:13:08Z,42.805,6.029,13.2995,4.59996,2470.133,2021-1-06T08:14:08Z
2021-01-06T06:16:11Z,42.805,6.029,13.2984,4.59996,2470.11,2021-1-06T08:17:12Z
2021-01-06T06:19:14Z,42.805,6.029,13.2990,4.60008,2470.1,2021-1-06T08:20:15Z
2021-01-06T06:22:17Z,42.805,6.029,13.2984,4.59996,2470.147,2021-1-06T08:23:18Z
2021-01-06T06:25:20Z,42.805,6.029,13.2986,4.59995,2470.124,2021-1-06T08:26:21Z
2021-01-06T06:28:23Z,42.805,6.029,13.2997,4.60002,2470.124,2021-1-06T08:29:24Z
2021-01-06T06:31:27Z,42.805,6.029,13.2984,4.59998,2470.133,2021-1-06T08:32:27Z
2021-01-06T06:34:30Z,42.805,6.029,13.2996,4.60011,2470.087,2021-1-06T08:35:30Z
2021-01-06T06:37:33Z,42.805,6.029,13.2991,4.60006,2470.11,2021-1-06T08:38:33Z
2021-01-06T06:40:36Z,42.805,6.029,13.2993,4.60022,2470.133,2021-1-06T08:41:37Z
2021-01-06T06:43:39Z,42.805,6.029,13.2989,4.59997,2470.124,2021-1-06T08:44:40Z
2021-01-06T06:46:42Z,42.805,6.029,13.2988,4.60003,2470.124,2021-1-06T08:47:43Z
2021-01-06T06:49:45Z,42.805,6.029,13.2988,4.59999,2470.124,2021-1-06T08:50:46Z
2021-01-06T06:52:48Z,42.805,6.029,13.2985,4.59997,2470.124,2021-1-06T08:53:49Z
2021-01-06T06:55:51Z,42.805,6.029,13.2989,4.59997,2470.147,2021-1-06T08:56:52Z
2021-01-06T06:58:55Z,42.805,6.029,13.2983,4.59996,2470.124,2021-1-06T08:59:55Z
2021-01-06T07:01:58Z,42.805,6.029,13.2989,4.60001,2470.133,2021-1-06T09:02:58Z
2021-01-06T07:05:01Z,42.805,6.029,13.2988,4.59995,2470.124,2021-1-06T09:06:02Z
2021-01-06T07:08:04Z,42.805,6.029,13.2993,4.60000,2470.171,2021-1-06T09:09:05Z
2021-01-06T07:11:07Z,42.805,6.029,13.2989,4.59996,2470.11,2021-1-06T09:12:08Z
2021-01-06T07:14:10Z,42.805,6.029,13.2991,4.59995,2470.073,2021-1-06T09:15:11Z
2021-01-06T07:17:13Z,42.805,6.029,13.2988,4.59999,2470.133,2021-1-06T09:18:14Z
2021-01-06T07:20:16Z,42.805,6.029,13.2983,4.59993,2470.171,2021-1-06T09:21:17Z
2021-01-06T07:23:20Z,42.805,6.029,13.2991,4.60008,2470.133,2021-1-06T09:24:20Z
2021-01-06T07:26:23Z,42.805,6.029,13.2982,4.59993,2470.1,2021-1-06T09:27:23Z
2021-01-06T07:29:26Z,42.805,6.029,13.2982,4.59993,2470.133,2021-1-06T09:30:26Z
2021-01-06T07:32:29Z,42.805,6.029,13.2990,4.60003,2470.11,2021-1-06T09:33:30Z
2021-01-06T07:35:32Z,42.805,6.029,13.2989,4.59996,2470.124,2021-1-06T09:36:33Z
2021-01-06T07:38:35Z,42.805,6.029,13.2990,4.59998,2470.147,2021-1-06T09:39:36Z
2021-01-06T07:41:38Z,42.805,6.029,13.2988,4.60005,2470.11,2021-1-06T09:42:39Z
2021-01-06T07:44:41Z,42.805,6.029,13.2985,4.59998,2470.1,2021-1-06T09:45:42Z
2021-01-06T07:47:44Z,42.805,6.029,13.2986,4.59994,2470.156,2021-1-06T09:48:45Z
2021-01-06T07:50:48Z,42.805,6.029,13.2984,4.59996,2470.124,2021-1-06T09:51:48Z
2021-01-06T07:53:51Z,42.805,6.029,13.2986,4.59999,2470.133,2021-1-06T09:54:51Z
2021-01-06T07:56:54Z,42.805,6.029,13.2982,4.59994,2470.133,2021-1-06T09:57:55Z
2021-01-06T07:59:57Z,42.805,6.029,13.2982,4.59996,2470.147,2021-1-06T10:00:58Z
2021-01-06T08:03:00Z,42.805,6.029,13.2984,4.59994,2470.133,2021-1-06T10:04:01Z
2021-01-06T08:06:03Z,42.805,6.029,13.2983,4.60010,2470.133,2021-1-06T10:07:04Z
2021-01-06T08:09:06Z,42.805,6.029,13.2991,4.60001,2470.194,2021-1-06T10:10:07Z
2021-01-06T08:12:09Z,42.805,6.029,13.2985,4.59995,2470.171,2021-1-06T10:13:10Z
2021-01-06T08:15:13Z,42.805,6.029,13.2984,4.59995,2470.11,2021-1-06T10:16:13Z
2021-01-06T08:18:16Z,42.805,6.029,13.2986,4.59994,2470.11,2021-1-06T10:19:16Z
2021-01-06T08:21:19Z,42.805,6.029,13.2981,4.59994,2470.156,2021-1-06T10:22:19Z
2021-01-06T08:24:22Z,42.805,6.029,13.2990,4.59997,2470.18,2021-1-06T10:25:23Z
2021-01-06T08:27:25Z,42.805,6.029,13.2983,4.59996,2470.133,2021-1-06T10:28:26Z
2021-01-06T08:30:28Z,42.805,6.029,13.2991,4.59996,2470.143,2021-1-06T10:31:29Z
2021-01-06T08:33:31Z,42.805,6.029,13.2986,4.59993,2470.18,2021-1-06T10:34:32Z
2021-01-06T08:36:34Z,42.805,6.029,13.2984,4.59997,2470.147,2021-1-06T10:37:35Z
2021-01-06T08:39:38Z,42.805,6.029,13.2985,4.59992,2470.171,2021-1-06T10:40:38Z
2021-01-06T08:42:41Z,42.805,6.029,13.2982,4.60006,2470.194,2021-1-06T10:43:41Z
2021-01-06T08:45:44Z,42.805,6.029,13.2983,4.59992,2470.156,2021-1-06T10:46:44Z
2021-01-06T08:48:47Z,42.805,6.029,13.2986,4.59990,2470.203,2021-1-06T10:49:48Z
2021-01-06T08:51:50Z,42.805,6.029,13.2985,4.59993,2470.194,2021-1-06T10:52:51Z
2021-01-06T08:54:53Z,42.805,6.029,13.2982,4.59994,2470.18,2021-1-06T10:55:54Z
2021-01-06T08:57:56Z,42.805,6.029,13.2984,4.59991,2470.171,2021-1-06T10:58:57Z
2021-01-06T09:00:59Z,42.805,6.029,13.2986,4.59994,2470.203,2021-1-06T11:02:00Z
2021-01-06T09:04:03Z,42.805,6.029,13.2984,4.59998,2470.18,2021-1-06T11:05:03Z
2021-01-06T09:07:06Z,42.805,6.029,13.2984,4.59991,2470.156,2021-1-06T11:08:06Z
2021-01-06T09:10:09Z,42.805,6.029,13.2988,4.59995,2470.194,2021-1-06T11:11:09Z
2021-01-06T09:13:12Z,42.805,6.029,13.2991,4.59996,2470.194,2021-1-06T11:14:13Z
2021-01-06T09:16:15Z,42.805,6.029,13.2984,4.59991,2470.194,2021-1-06T11:17:16Z
2021-01-06T09:19:18Z,42.805,6.029,13.2983,4.60008,2470.194,2021-1-06T11:20:19Z
2021-01-06T09:22:21Z,42.805,6.029,13.2985,4.60000,2470.18,2021-1-06T11:23:22Z
2021-01-06T09:25:24Z,42.805,6.029,13.2990,4.60011,2470.203,2021-1-06T11:26:25Z
2021-01-06T09:28:28Z,42.805,6.029,13.2989,4.59998,2470.203,2021-1-06T11:29:28Z
2021-01-06T09:31:31Z,42.805,6.029,13.2983,4.59997,2470.227,2021-1-06T11:32:31Z
2021-01-06T09:34:34Z,42.805,6.029,13.2983,4.59996,2470.24,2021-1-06T11:35:34Z
2021-01-06T09:37:37Z,42.805,6.029,13.2985,4.59997,2470.227,2021-1-06T11:38:38Z
2021-01-06T09:40:40Z,42.805,6.029,13.2993,4.60017,2470.203,2021-1-06T11:41:41Z
2021-01-06T09:43:43Z,42.805,6.029,13.2987,4.59997,2470.24,2021-1-06T11:44:44Z
2021-01-06T09:46:46Z,42.805,6.029,13.2986,4.59997,2470.227,2021-1-06T11:47:47Z
2021-01-06T09:49:49Z,42.805,6.029,13.2987,4.59999,2470.227,2021-1-06T11:50:50Z
2021-01-06T09:52:52Z,42.805,6.029,13.2989,4.60003,2470.264,2021-1-06T11:53:53Z
2021-01-06T09:55:56Z,42.805,6.029,13.2983,4.59994,2470.227,2021-1-06T11:56:56Z
2021-01-06T09:58:59Z,42.805,6.029,13.2987,4.59998,2470.227,2021-1-06T11:59:59Z
2021-01-06T10:02:02Z,42.805,6.029,13.2983,4.59994,2470.264,2021-1-06T12:03:03Z
2021-01-06T10:05:05Z,42.805,6.029,13.2984,4.59996,2470.264,2021-1-06T12:06:06Z
2021-01-06T10:08:08Z,42.805,6.029,13.2983,4.59999,2470.203,2021-1-06T12:09:09Z
2021-01-06T10:11:11Z,42.805,6.029,13.2986,4.60002,2470.264,2021-1-06T12:12:12Z
2021-01-06T10:14:14Z,42.805,6.029,13.2986,4.60002,2470.227,2021-1-06T12:15:15Z
2021-01-06T10:17:17Z,42.805,6.029,13.2991,4.59996,2470.24,2021-1-06T12:18:18Z
2021-01-06T10:20:21Z,42.805,6.029,13.2985,4.59995,2470.25,2021-1-06T12:21:21Z
2021-01-06T10:23:24Z,42.805,6.029,13.2993,4.59997,2470.25,2021-1-06T12:24:24Z
2021-01-06T10:26:27Z,42.805,6.029,13.2991,4.60000,2470.264,2021-1-06T12:27:28Z
2021-01-06T10:29:30Z,42.805,6.029,13.2985,4.59998,2470.273,2021-1-06T12:30:31Z
2021-01-06T10:32:33Z,42.805,6.029,13.2992,4.60000,2470.273,2021-1-06T12:33:34Z
2021-01-06T10:35:36Z,42.805,6.029,13.2987,4.60001,2470.264,2021-1-06T12:36:37Z
2021-01-06T10:38:39Z,42.805,6.029,13.2983,4.60005,2470.287,2021-1-06T12:39:40Z
2021-01-06T10:41:42Z,42.805,6.029,13.2990,4.59996,2470.273,2021-1-06T12:42:43Z
2021-01-06T10:44:46Z,42.805,6.029,13.2985,4.59993,2470.287,2021-1-06T12:45:46Z
2021-01-06T10:47:49Z,42.805,6.029,13.2979,4.59990,2470.287,2021-1-06T12:48:49Z
2021-01-06T10:50:52Z,42.805,6.029,13.2988,4.59995,2470.287,2021-1-06T12:51:53Z
2021-01-06T10:53:55Z,42.805,6.029,13.2986,4.59992,2470.297,2021-1-06T12:54:56Z
2021-01-06T10:56:58Z,42.805,6.029,13.2990,4.60007,2470.297,2021-1-06T12:57:59Z
2021-01-06T11:00:01Z,42.805,6.029,13.2982,4.59994,2470.273,2021-1-06T13:01:02Z
2021-01-06T11:03:04Z,42.805,6.029,13.2992,4.60003,2470.287,2021-1-06T13:04:05Z
2021-01-06T11:06:07Z,42.805,6.029,13.2989,4.60010,2470.273,2021-1-06T13:07:08Z
2021-01-06T11:09:11Z,42.805,6.029,13.2982,4.59994,2470.273,2021-1-06T13:10:11Z
2021-01-06T11:12:14Z,42.805,6.029,13.2975,4.59992,2470.273,2021-1-06T13:13:14Z
2021-01-06T11:15:17Z,42.805,6.029,13.2990,4.60001,2470.297,2021-1-06T13:16:18Z
2021-01-06T11:18:20Z,42.805,6.029,13.2984,4.59999,2470.25,2021-1-06T13:19:21Z
2021-01-06T11:21:23Z,42.805,6.029,13.2980,4.59992,2470.297,2021-1-06T13:22:24Z
2021-01-06T11:24:26Z,42.805,6.029,13.2985,4.59999,2470.31,2021-1-06T13:25:27Z
2021-01-06T11:27:29Z,42.805,6.029,13.2986,4.59997,2470.273,2021-1-06T13:28:30Z
2021-01-06T11:30:32Z,42.805,6.029,13.2980,4.59999,2470.287,2021-1-06T13:31:33Z
2021-01-06T11:33:36Z,42.805,6.029,13.2990,4.59999,2470.287,2021-1-06T13:34:36Z
2021-01-06T11:36:39Z,42.805,6.029,13.2986,4.60000,2470.273,2021-1-06T13:37:39Z
2021-01-06T11:39:42Z,42.805,6.029,13.2985,4.59996,2470.32,2021-1-06T13:40:42Z
2021-01-06T11:42:45Z,42.805,6.029,13.2987,4.60009,2470.32,2021-1-06T13:43:46Z
2021-01-06T11:45:48Z,42.805,6.029,13.2984,4.59991,2470.297,2021-1-06T13:46:49Z
2021-01-06T11:48:51Z,42.805,6.029,13.2985,4.59997,2470.297,2021-1-06T13:49:52Z
2021-01-06T11:51:54Z,42.805,6.029,13.2982,4.59994,2470.31,2021-1-06T13:52:55Z
2021-01-06T11:54:57Z,42.805,6.029,13.2983,4.59989,2470.297,2021-1-06T13:55:58Z
2021-01-06T11:58:01Z,42.805,6.029,13.2984,4.59995,2470.297,2021-1-06T13:59:01Z
2021-01-06T12:01:04Z,42.805,6.029,13.2982,4.59991,2470.297,2021-1-06T14:02:04Z
2021-01-06T12:04:07Z,42.805,6.029,13.2982,4.59999,2470.273,2021-1-06T14:05:07Z
2021-01-06T12:07:10Z,42.805,6.029,13.2989,4.59994,2470.32,2021-1-06T14:08:11Z
2021-01-06T12:10:13Z,42.805,6.029,13.2986,4.59996,2470.297,2021-1-06T14:11:14Z
2021-01-06T12:13:16Z,42.805,6.029,13.2989,4.60008,2470.273,2021-1-06T14:14:17Z
2021-01-06T12:16:19Z,42.805,6.029,13.2986,4.59999,2470.31,2021-1-06T14:17:20Z
2021-01-06T12:19:22Z,42.805,6.029,13.2988,4.59995,2470.297,2021-1-06T14:20:23Z
2021-01-06T12:22:26Z,42.805,6.029,13.2986,4.60011,2470.273,2021-1-06T14:23:26Z
2021-01-06T12:25:29Z,42.805,6.029,13.2988,4.59998,2470.297,2021-1-06T14:26:29Z
2021-01-06T12:28:32Z,42.805,6.029,13.2984,4.59997,2470.297,2021-1-06T14:29:32Z
2021-01-06T12:31:35Z,42.805,6.029,13.2984,4.60001,2470.283,2021-1-06T14:32:36Z
2021-01-06T12:34:38Z,42.805,6.029,13.2989,4.59996,2470.297,2021-1-06T14:35:39Z
2021-01-06T12:37:41Z,42.805,6.029,13.2990,4.59995,2470.297,2021-1-06T14:38:42Z
2021-01-06T12:40:44Z,42.805,6.029,13.2982,4.59998,2470.287,2021-1-06T14:41:45Z
2021-01-06T12:43:47Z,42.805,6.029,13.2991,4.60001,2470.297,2021-1-06T14:44:48Z
2021-01-06T12:46:51Z,42.805,6.029,13.2983,4.60015,2470.31,2021-1-06T14:47:51Z
2021-01-06T12:49:54Z,42.805,6.029,13.2987,4.59996,2470.343,2021-1-06T14:50:54Z
2021-01-06T12:52:57Z,42.805,6.029,13.2983,4.59998,2470.287,2021-1-06T14:53:57Z
2021-01-06T12:56:00Z,42.805,6.029,13.2987,4.59996,2470.287,2021-1-06T14:57:01Z
2021-01-06T12:59:03Z,42.805,6.029,13.2989,4.59999,2470.297,2021-1-06T15:00:04Z
2021-01-06T13:02:06Z,42.805,6.029,13.2992,4.60003,2470.287,2021-1-06T15:03:07Z
2021-01-06T13:05:09Z,42.805,6.029,13.2989,4.60001,2470.273,2021-1-06T15:06:10Z
2021-01-06T13:08:12Z,42.805,6.029,13.2986,4.59999,2470.31,2021-1-06T15:09:13Z
2021-01-06T13:11:15Z,42.805,6.029,13.2989,4.59996,2470.31,2021-1-06T15:12:16Z
2021-01-06T13:14:19Z,42.805,6.029,13.2986,4.60001,2470.334,2021-1-06T15:15:19Z
2021-01-06T13:17:22Z,42.805,6.029,13.2988,4.59996,2470.297,2021-1-06T15:18:22Z
2021-01-06T13:20:25Z,42.805,6.029,13.2989,4.59999,2470.31,2021-1-06T15:21:26Z
2021-01-06T13:23:28Z,42.805,6.029,13.2987,4.60001,2470.297,2021-1-06T15:24:29Z
2021-01-06T13:26:31Z,42.805,6.029,13.2989,4.60010,2470.287,2021-1-06T15:27:32Z
2021-01-06T13:29:34Z,42.805,6.029,13.2991,4.60019,2470.297,2021-1-06T15:30:35Z
2021-01-06T13:32:37Z,42.805,6.029,13.2990,4.59997,2470.273,2021-1-06T15:33:38Z
2021-01-06T13:35:40Z,42.805,6.029,13.2984,4.59999,2470.32,2021-1-06T15:36:41Z
2021-01-06T13:38:44Z,42.805,6.029,13.2986,4.59997,2470.31,2021-1-06T15:39:44Z
2021-01-06T13:41:47Z,42.805,6.029,13.2992,4.60001,2470.273,2021-1-06T15:42:47Z
2021-01-06T13:44:50Z,42.805,6.029,13.2991,4.59999,2470.287,2021-1-06T15:45:51Z
2021-01-06T13:47:53Z,42.805,6.029,13.2984,4.59997,2470.273,2021-1-06T15:48:54Z
2021-01-06T13:50:56Z,42.805,6.029,13.2985,4.60001,2470.297,2021-1-06T15:51:57Z
2021-01-06T13:53:59Z,42.805,6.029,13.2988,4.59998,2470.297,2021-1-06T15:55:00Z
2021-01-06T13:57:02Z,42.805,6.029,13.2991,4.59996,2470.297,2021-1-06T15:58:03Z
2021-01-06T14:00:06Z,42.805,6.029,13.2986,4.59995,2470.31,2021-1-06T16:01:07Z
2021-01-06T14:03:09Z,42.805,6.029,13.2992,4.59999,2470.287,2021-1-06T16:04:10Z
2021-01-06T14:06:12Z,42.805,6.029,13.2987,4.59998,2470.273,2021-1-06T16:07:13Z
2021-01-06T14:09:16Z,42.805,6.029,13.2990,4.59996,2470.297,2021-1-06T16:10:16Z
2021-01-06T14:12:19Z,42.805,6.029,13.2983,4.60006,2470.297,2021-1-06T16:13:19Z
2021-01-06T14:15:22Z,42.805,6.029,13.2982,4.60003,2470.287,2021-1-06T16:16:22Z
2021-01-06T14:18:25Z,42.805,6.029,13.2988,4.59999,2470.297,2021-1-06T16:19:26Z
2021-01-06T14:21:28Z,42.805,6.029,13.2990,4.59996,2470.273,2021-1-06T16:22:29Z
2021-01-06T14:24:31Z,42.805,6.029,13.2987,4.60003,2470.25,2021-1-06T16:25:32Z
2021-01-06T14:27:34Z,42.805,6.029,13.2988,4.60003,2470.273,2021-1-06T16:28:35Z
2021-01-06T14:30:37Z,42.805,6.029,13.2986,4.60000,2470.25,2021-1-06T16:31:38Z
2021-01-06T14:33:40Z,42.805,6.029,13.2986,4.60006,2470.264,2021-1-06T16:34:41Z
2021-01-06T14:36:44Z,42.805,6.029,13.2983,4.59998,2470.287,2021-1-06T16:37:44Z
2021-01-06T14:39:47Z,42.805,6.029,13.2983,4.59998,2470.25,2021-1-06T16:40:47Z
2021-01-06T14:42:50Z,42.805,6.029,13.2986,4.59998,2470.287,2021-1-06T16:43:50Z
2021-01-06T14:45:53Z,42.805,6.029,13.2986,4.59996,2470.287,2021-1-06T16:46:54Z
2021-01-06T14:48:56Z,42.805,6.029,13.2987,4.59997,2470.264,2021-1-06T16:49:57Z
2021-01-06T14:51:59Z,42.805,6.029,13.2987,4.59996,2470.25,2021-1-06T16:53:00Z
2021-01-06T14:55:02Z,42.805,6.029,13.2990,4.60003,2470.25,2021-1-06T16:56:03Z
2021-01-06T14:58:05Z,42.805,6.029,13.2983,4.59994,2470.273,2021-1-06T16:59:06Z
2021-01-06T15:01:09Z,42.805,6.029,13.2983,4.59994,2470.273,2021-1-06T17:02:09Z
2021-01-06T15:04:12Z,42.805,6.029,13.2987,4.60011,2470.273,2021-1-06T17:05:12Z
2021-01-06T15:07:15Z,42.805,6.029,13.2982,4.59995,2470.227,2021-1-06T17:08:15Z
2021-01-06T15:10:18Z,42.805,6.029,13.2984,4.59995,2470.227,2021-1-06T17:11:19Z